TimeEST,TemperatureF,Dew PointF,Humidity,Sea Level PressureIn,VisibilityMPH,Wind Direction,Wind SpeedMPH,Gust SpeedMPH,PrecipitationIn,Events,Conditions,WindDirDegrees,DateUTC
12:53 AM,32.0,21.0,64,30.32,10.0,Calm,Calm,-,N/A,,Clear,0,2012-12-14 05:53:00
1:53 AM,30.0,21.0,69,30.32,10.0,SW,4.6,-,N/A,,Clear,230,2012-12-14 06:53:00
2:53 AM,30.9,21.0,67,30.31,10.0,SW,4.6,-,N/A,,Clear,230,2012-12-14 07:53:00
3:53 AM,30.0,21.0,69,30.30,10.0,SSW,3.5,-,N/A,,Clear,210,2012-12-14 08:53:00
5:53 AM,35.1,21.9,59,30.30,10.0,Calm,Calm,-,N/A,,Clear,0,2012-12-14 10:53:00
6:53 AM,37.0,21.9,54,30.30,10.0,Calm,Calm,-,N/A,,Clear,0,2012-12-14 11:53:00
7:53 AM,37.0,21.9,54,30.29,10.0,Calm,Calm,-,N/A,,Clear,0,2012-12-14 12:53:00
8:53 AM,37.9,21.9,53,30.30,10.0,Calm,Calm,-,N/A,,Clear,0,2012-12-14 13:53:00
9:53 AM,44.1,21.9,42,30.29,10.0,Calm,Calm,-,N/A,,Clear,0,2012-12-14 14:53:00
10:53 AM,48.9,21.9,35,30.29,10.0,Variable,3.5,-,N/A,,Clear,0,2012-12-14 15:53:00
11:53 AM,51.1,23.0,33,30.27,10.0,Variable,3.5,-,N/A,,Clear,0,2012-12-14 16:53:00
12:53 PM,51.1,21.9,32,30.25,10.0,WSW,9.2,-,N/A,,Clear,240,2012-12-14 17:53:00
1:53 PM,53.1,19.9,27,30.23,10.0,SW,8.1,-,N/A,,Clear,230,2012-12-14 18:53:00
2:53 PM,52.0,21.0,30,30.22,10.0,Variable,3.5,-,N/A,,Clear,0,2012-12-14 19:53:00
3:53 PM,52.0,23.0,32,30.22,10.0,SW,4.6,-,N/A,,Clear,220,2012-12-14 20:53:00
4:53 PM,46.0,24.1,42,30.21,10.0,Calm,Calm,-,N/A,,Clear,0,2012-12-14 21:53:00
5:53 PM,43.0,24.1,47,30.23,10.0,Calm,Calm,-,N/A,,Clear,0,2012-12-14 22:53:00
6:53 PM,42.1,24.1,49,30.24,10.0,Calm,Calm,-,N/A,,Clear,0,2012-12-14 23:53:00
7:53 PM,45.0,23.0,42,30.24,10.0,Calm,Calm,-,N/A,,Clear,0,2012-12-15 00:53:00
8:53 PM,42.1,24.1,49,30.25,10.0,Calm,Calm,-,N/A,,Clear,0,2012-12-15 01:53:00
9:53 PM,37.0,24.1,59,30.26,10.0,Calm,Calm,-,N/A,,Clear,0,2012-12-15 02:53:00
10:53 PM,37.9,23.0,55,30.26,10.0,WSW,3.5,-,N/A,,Clear,240,2012-12-15 03:53:00
11:53 PM,39.9,23.0,51,30.25,10.0,Calm,Calm,-,N/A,,Clear,0,2012-12-15 04:53:00